User: anonymous   Login
Location: Caltech
(34.1382°N, 118.1253°W)
Time: 20:47:36
(UTC-07:00)
Language:

NOSS 3-4 (C) - Orbit

View from above orbital plane
View from above orbital plane
View from above satellite
View from above satellite

Ground track
Ground track

The orbit data is extracted from the following two-line orbital elements,

1 31708U 07027C   14292.13822853 0.00000000  00000-0  00000-0 0    08
2 31708  63.4040  40.7470 0114000  38.9783 321.0217 13.40656394    01
Epoch (UTC): 19 October 2014 03:19:02
Eccentricity: 0.0114000
inclination: 63.4040°
perigee height: 1021 km
apogee height: 1192 km
right ascension of ascending node: 40.7470°
argument of perigee: 38.9783°
revolutions per day: 13.40656394
mean anomaly at epoch: 321.0217°
orbit number at epoch: 0

The dashed part of the orbit path shows where the satellite is in the earth's shadow,  

DLR